#datetime,building,power
2023-11-10T00:00:00,mfh,44.98
2023-11-10T00:01:00,mfh,45.32
2023-11-10T00:02:00,mfh,45.39
2023-11-10T00:03:00,mfh,46.48
2023-11-10T00:04:00,mfh,41.36
2023-11-10T00:05:00,mfh,41.37
2023-11-10T00:06:00,mfh,41.24
2023-11-10T00:07:00,mfh,42.12
2023-11-10T00:08:00,mfh,42.22
2023-11-10T00:09:00,mfh,41.95
2023-11-10T00:10:00,mfh,42.55
2023-11-10T00:11:00,mfh,41.88
2023-11-10T00:12:00,mfh,41.73
2023-11-10T00:13:00,mfh,41.06
2023-11-10T00:14:00,mfh,41.02
2023-11-10T00:15:00,mfh,41.39
2023-11-10T00:16:00,mfh,40.86
2023-11-10T00:17:00,mfh,41.57
2023-11-10T00:18:00,mfh,41.76
2023-11-10T00:19:00,mfh,41.59
2023-11-10T00:20:00,mfh,41.68
2023-11-10T00:21:00,mfh,41.77
2023-11-10T00:22:00,mfh,41.74
2023-11-10T00:23:00,mfh,40.92
2023-11-10T00:24:00,mfh,44.08
2023-11-10T00:25:00,mfh,44.03
2023-11-10T00:26:00,mfh,45.48
2023-11-10T00:27:00,mfh,45.54
2023-11-10T00:28:00,mfh,44.74
2023-11-10T00:29:00,mfh,44.22
2023-11-10T00:30:00,mfh,44.20
2023-11-10T00:31:00,mfh,44.94
2023-11-10T00:32:00,mfh,44.95
2023-11-10T00:33:00,mfh,45.03
2023-11-10T00:34:00,mfh,45.12
2023-11-10T00:35:00,mfh,45.64
2023-11-10T00:36:00,mfh,46.91
2023-11-10T00:37:00,mfh,46.23
2023-11-10T00:38:00,mfh,46.35
2023-11-10T00:39:00,mfh,46.36
2023-11-10T00:40:00,mfh,43.95
2023-11-10T00:41:00,mfh,44.90
2023-11-10T00:42:00,mfh,43.95
2023-11-10T00:43:00,mfh,44.03
2023-11-10T00:44:00,mfh,44.01
2023-11-10T00:45:00,mfh,44.45
2023-11-10T00:46:00,mfh,44.03
2023-11-10T00:47:00,mfh,43.23
2023-11-10T00:48:00,mfh,43.14
2023-11-10T00:49:00,mfh,43.08
2023-11-10T00:50:00,mfh,43.69
2023-11-10T00:51:00,mfh,43.75
2023-11-10T00:52:00,mfh,43.75
2023-11-10T00:53:00,mfh,44.03
2023-11-10T00:54:00,mfh,43.81
2023-11-10T00:55:00,mfh,44.30
2023-11-10T00:56:00,mfh,42.84
2023-11-10T00:57:00,mfh,42.82
2023-11-10T00:58:00,mfh,42.94
2023-11-10T00:59:00,mfh,43.46
2023-11-10T01:00:00,mfh,43.45
2023-11-10T01:01:00,mfh,44.05
2023-11-10T01:02:00,mfh,43.50
2023-11-10T01:03:00,mfh,43.45
2023-11-10T01:04:00,mfh,43.52
2023-11-10T01:05:00,mfh,43.88
2023-11-10T01:06:00,mfh,43.37
2023-11-10T01:07:00,mfh,43.30
2023-11-10T01:08:00,mfh,43.15
2023-11-10T01:09:00,mfh,44.30
2023-11-10T01:10:00,mfh,44.77
2023-11-10T01:11:00,mfh,43.90
2023-11-10T01:12:00,mfh,43.87
2023-11-10T01:13:00,mfh,41.99
2023-11-10T01:14:00,mfh,42.34
2023-11-10T01:15:00,mfh,41.63
2023-11-10T01:16:00,mfh,41.55
2023-11-10T01:17:00,mfh,41.89
2023-11-10T01:18:00,mfh,42.20
2023-11-10T01:19:00,mfh,42.29
2023-11-10T01:20:00,mfh,42.17
2023-11-10T01:21:00,mfh,43.08
2023-11-10T01:22:00,mfh,42.22
2023-11-10T01:23:00,mfh,42.14
2023-11-10T01:24:00,mfh,42.40
2023-11-10T01:25:00,mfh,41.39
2023-11-10T01:26:00,mfh,41.36
2023-11-10T01:27:00,mfh,41.40
2023-11-10T01:28:00,mfh,41.56
2023-11-10T01:29:00,mfh,42.12
2023-11-10T01:30:00,mfh,42.24
2023-11-10T01:31:00,mfh,42.32
2023-11-10T01:32:00,mfh,42.24
2023-11-10T01:33:00,mfh,42.23
2023-11-10T01:34:00,mfh,41.42
2023-11-10T01:35:00,mfh,41.42
2023-11-10T01:36:00,mfh,41.47
2023-11-10T01:37:00,mfh,41.42
2023-11-10T01:38:00,mfh,42.41
2023-11-10T01:39:00,mfh,41.90
2023-11-10T01:40:00,mfh,41.91
2023-11-10T01:41:00,mfh,41.88
2023-11-10T01:42:00,mfh,42.00
2023-11-10T01:43:00,mfh,41.76
2023-11-10T01:44:00,mfh,41.28
2023-11-10T01:45:00,mfh,41.34
2023-11-10T01:46:00,mfh,41.12
2023-11-10T01:47:00,mfh,41.82
2023-11-10T01:48:00,mfh,41.80
2023-11-10T01:49:00,mfh,41.76
2023-11-10T01:50:00,mfh,42.19
2023-11-10T01:51:00,mfh,41.93
2023-11-10T01:52:00,mfh,41.94
2023-11-10T01:53:00,mfh,41.17
2023-11-10T01:54:00,mfh,41.16
2023-11-10T01:55:00,mfh,41.39
2023-11-10T01:56:00,mfh,41.37
2023-11-10T01:57:00,mfh,42.10
2023-11-10T01:58:00,mfh,42.21
2023-11-10T01:59:00,mfh,42.62
2023-11-10T02:00:00,mfh,41.93
2023-11-10T02:01:00,mfh,42.10
2023-11-10T02:02:00,mfh,42.85
2023-11-10T02:03:00,mfh,41.56
2023-11-10T02:04:00,mfh,41.95
2023-11-10T02:05:00,mfh,41.38
2023-11-10T02:06:00,mfh,42.26
2023-11-10T02:07:00,mfh,42.26
2023-11-10T02:08:00,mfh,42.32
2023-11-10T02:09:00,mfh,42.40
2023-11-10T02:10:00,mfh,42.49
2023-11-10T02:11:00,mfh,43.07
2023-11-10T02:12:00,mfh,42.82
2023-11-10T02:13:00,mfh,41.81
2023-11-10T02:14:00,mfh,41.82
2023-11-10T02:15:00,mfh,41.77
2023-11-10T02:16:00,mfh,42.50
2023-11-10T02:17:00,mfh,42.52
2023-11-10T02:18:00,mfh,43.11
2023-11-10T02:19:00,mfh,43.04
2023-11-10T02:20:00,mfh,43.04
2023-11-10T02:21:00,mfh,42.38
2023-11-10T02:22:00,mfh,41.68
2023-11-10T02:23:00,mfh,43.43
2023-11-10T02:24:00,mfh,43.02
2023-11-10T02:25:00,mfh,42.88
2023-11-10T02:26:00,mfh,43.00
2023-11-10T02:27:00,mfh,42.92
2023-11-10T02:28:00,mfh,42.99
2023-11-10T02:29:00,mfh,42.36
2023-11-10T02:30:00,mfh,42.55
2023-11-10T02:31:00,mfh,42.30
2023-11-10T02:32:00,mfh,41.38
2023-11-10T02:33:00,mfh,41.44
2023-11-10T02:34:00,mfh,41.86
2023-11-10T02:35:00,mfh,42.10
2023-11-10T02:36:00,mfh,42.35
2023-11-10T02:37:00,mfh,43.64
2023-11-10T02:38:00,mfh,42.87
2023-11-10T02:39:00,mfh,42.13
2023-11-10T02:40:00,mfh,44.10
2023-11-10T02:41:00,mfh,43.33
2023-11-10T02:42:00,mfh,43.28
2023-11-10T02:43:00,mfh,43.29
2023-11-10T02:44:00,mfh,44.10
2023-11-10T02:45:00,mfh,44.08
2023-11-10T02:46:00,mfh,44.04
2023-11-10T02:47:00,mfh,44.02
2023-11-10T02:48:00,mfh,45.69
2023-11-10T02:49:00,mfh,45.77
2023-11-10T02:50:00,mfh,45.16
2023-11-10T02:51:00,mfh,45.40
2023-11-10T02:52:00,mfh,45.04
2023-11-10T02:53:00,mfh,45.04
2023-11-10T02:54:00,mfh,44.02
2023-11-10T02:55:00,mfh,44.09
2023-11-10T02:56:00,mfh,44.15
2023-11-10T02:57:00,mfh,44.23
2023-11-10T02:58:00,mfh,44.39
2023-11-10T02:59:00,mfh,44.23
2023-11-10T03:00:00,mfh,44.27
2023-11-10T03:01:00,mfh,43.46
2023-11-10T03:02:00,mfh,43.71
2023-11-10T03:03:00,mfh,44.15
2023-11-10T03:04:00,mfh,44.60
2023-11-10T03:05:00,mfh,44.59
2023-11-10T03:06:00,mfh,44.04
2023-11-10T03:07:00,mfh,44.11
2023-11-10T03:08:00,mfh,44.13
2023-11-10T03:09:00,mfh,43.35
2023-11-10T03:10:00,mfh,43.34
2023-11-10T03:11:00,mfh,43.56
2023-11-10T03:12:00,mfh,43.74
2023-11-10T03:13:00,mfh,43.74
2023-11-10T03:14:00,mfh,44.36
2023-11-10T03:15:00,mfh,43.84
2023-11-10T03:16:00,mfh,41.88
2023-11-10T03:17:00,mfh,41.76
2023-11-10T03:18:00,mfh,41.58
2023-11-10T03:19:00,mfh,41.13
2023-11-10T03:20:00,mfh,44.12
2023-11-10T03:21:00,mfh,45.00
2023-11-10T03:22:00,mfh,44.99
2023-11-10T03:23:00,mfh,44.99
2023-11-10T03:24:00,mfh,45.47
2023-11-10T03:25:00,mfh,45.09
2023-11-10T03:26:00,mfh,44.88
2023-11-10T03:27:00,mfh,44.84
2023-11-10T03:28:00,mfh,44.35
2023-11-10T03:29:00,mfh,44.33
2023-11-10T03:30:00,mfh,44.13
2023-11-10T03:31:00,mfh,44.87
2023-11-10T03:32:00,mfh,44.90
2023-11-10T03:33:00,mfh,44.91
2023-11-10T03:34:00,mfh,44.87
2023-11-10T03:35:00,mfh,44.90
2023-11-10T03:36:00,mfh,48.54
2023-11-10T03:37:00,mfh,48.78
2023-11-10T03:38:00,mfh,48.48
2023-11-10T03:39:00,mfh,48.83
2023-11-10T03:40:00,mfh,48.77
2023-11-10T03:41:00,mfh,49.78
2023-11-10T03:42:00,mfh,49.69
2023-11-10T03:43:00,mfh,49.66
2023-11-10T03:44:00,mfh,49.80
2023-11-10T03:45:00,mfh,49.48
2023-11-10T03:46:00,mfh,48.91
2023-11-10T03:47:00,mfh,48.94
2023-11-10T03:48:00,mfh,48.76
2023-11-10T03:49:00,mfh,48.83
2023-11-10T03:50:00,mfh,49.65
2023-11-10T03:51:00,mfh,49.59
2023-11-10T03:52:00,mfh,49.34
2023-11-10T03:53:00,mfh,49.40
2023-11-10T03:54:00,mfh,49.29
2023-11-10T03:55:00,mfh,49.33
2023-11-10T03:56:00,mfh,48.78
2023-11-10T03:57:00,mfh,48.48
2023-11-10T03:58:00,mfh,48.45
2023-11-10T03:59:00,mfh,49.32
2023-11-10T04:00:00,mfh,49.68
2023-11-10T04:01:00,mfh,49.18
2023-11-10T04:02:00,mfh,49.25
2023-11-10T04:03:00,mfh,49.16
2023-11-10T04:04:00,mfh,49.37
2023-11-10T04:05:00,mfh,48.84
2023-11-10T04:06:00,mfh,48.95
2023-11-10T04:07:00,mfh,48.87
2023-11-10T04:08:00,mfh,49.45
2023-11-10T04:09:00,mfh,49.40
2023-11-10T04:10:00,mfh,49.61
2023-11-10T04:11:00,mfh,49.28
2023-11-10T04:12:00,mfh,49.32
2023-11-10T04:13:00,mfh,49.45
2023-11-10T04:14:00,mfh,48.95
2023-11-10T04:15:00,mfh,48.84
2023-11-10T04:16:00,mfh,48.71
2023-11-10T04:17:00,mfh,49.39
2023-11-10T04:18:00,mfh,49.37
2023-11-10T04:19:00,mfh,49.51
2023-11-10T04:20:00,mfh,49.73
2023-11-10T04:21:00,mfh,49.94
2023-11-10T04:22:00,mfh,49.73
2023-11-10T04:23:00,mfh,49.00
2023-11-10T04:24:00,mfh,48.98
2023-11-10T04:25:00,mfh,49.44
2023-11-10T04:26:00,mfh,49.56
2023-11-10T04:27:00,mfh,50.04
2023-11-10T04:28:00,mfh,49.48
2023-11-10T04:29:00,mfh,49.46
2023-11-10T04:30:00,mfh,49.39
2023-11-10T04:31:00,mfh,49.45
2023-11-10T04:32:00,mfh,49.44
2023-11-10T04:33:00,mfh,48.90
2023-11-10T04:34:00,mfh,48.85
2023-11-10T04:35:00,mfh,49.34
2023-11-10T04:36:00,mfh,49.21
2023-11-10T04:37:00,mfh,49.11
2023-11-10T04:38:00,mfh,49.21
2023-11-10T04:39:00,mfh,49.22
2023-11-10T04:40:00,mfh,49.69
2023-11-10T04:41:00,mfh,48.64
2023-11-10T04:42:00,mfh,48.44
2023-11-10T04:43:00,mfh,48.51
2023-11-10T04:44:00,mfh,48.57
2023-11-10T04:45:00,mfh,49.16
2023-11-10T04:46:00,mfh,51.32
2023-11-10T04:47:00,mfh,51.07
2023-11-10T04:48:00,mfh,51.07
2023-11-10T04:49:00,mfh,51.06
2023-11-10T04:50:00,mfh,51.07
2023-11-10T04:51:00,mfh,50.29
2023-11-10T04:52:00,mfh,51.21
2023-11-10T04:53:00,mfh,50.09
2023-11-10T04:54:00,mfh,50.63
2023-11-10T04:55:00,mfh,51.50
2023-11-10T04:56:00,mfh,50.72
2023-11-10T04:57:00,mfh,50.77
2023-11-10T04:58:00,mfh,50.64
2023-11-10T04:59:00,mfh,50.90
2023-11-10T05:00:00,mfh,50.83
2023-11-10T05:01:00,mfh,67.75
2023-11-10T05:02:00,mfh,72.26
2023-11-10T05:03:00,mfh,72.98
2023-11-10T05:04:00,mfh,72.87
2023-11-10T05:05:00,mfh,73.50
2023-11-10T05:06:00,mfh,72.81
2023-11-10T05:07:00,mfh,72.37
2023-11-10T05:08:00,mfh,71.77
2023-11-10T05:09:00,mfh,70.86
2023-11-10T05:10:00,mfh,70.94
2023-11-10T05:11:00,mfh,71.31
2023-11-10T05:12:00,mfh,71.09
2023-11-10T05:13:00,mfh,71.77
2023-11-10T05:14:00,mfh,72.62
2023-11-10T05:15:00,mfh,72.01
2023-11-10T05:16:00,mfh,72.65
2023-11-10T05:17:00,mfh,72.09
2023-11-10T05:18:00,mfh,72.37
2023-11-10T05:19:00,mfh,71.88
2023-11-10T05:20:00,mfh,72.14
2023-11-10T05:21:00,mfh,71.88
2023-11-10T05:22:00,mfh,71.00
2023-11-10T05:23:00,mfh,71.03
2023-11-10T05:24:00,mfh,71.23
2023-11-10T05:25:00,mfh,71.46
2023-11-10T05:26:00,mfh,71.71
2023-11-10T05:27:00,mfh,71.44
2023-11-10T05:28:00,mfh,70.50
2023-11-10T05:29:00,mfh,70.61
2023-11-10T05:30:00,mfh,70.56
2023-11-10T05:31:00,mfh,71.87
2023-11-10T05:32:00,mfh,71.39
2023-11-10T05:33:00,mfh,72.18
2023-11-10T05:34:00,mfh,71.35
2023-11-10T05:35:00,mfh,71.44
2023-11-10T05:36:00,mfh,72.19
2023-11-10T05:37:00,mfh,71.42
2023-11-10T05:38:00,mfh,71.31
2023-11-10T05:39:00,mfh,71.66
2023-11-10T05:40:00,mfh,72.97
2023-11-10T05:41:00,mfh,72.24
2023-11-10T05:42:00,mfh,71.27
2023-11-10T05:43:00,mfh,71.33
2023-11-10T05:44:00,mfh,71.17
2023-11-10T05:45:00,mfh,72.25
2023-11-10T05:46:00,mfh,70.69
2023-11-10T05:47:00,mfh,70.75
2023-11-10T05:48:00,mfh,71.37
2023-11-10T05:49:00,mfh,71.28
2023-11-10T05:50:00,mfh,71.14
2023-11-10T05:51:00,mfh,71.20
2023-11-10T05:52:00,mfh,71.23
2023-11-10T05:53:00,mfh,71.38
2023-11-10T05:54:00,mfh,71.22
2023-11-10T05:55:00,mfh,70.33
2023-11-10T05:56:00,mfh,70.23
2023-11-10T05:57:00,mfh,70.59
2023-11-10T05:58:00,mfh,71.19
2023-11-10T05:59:00,mfh,71.19
2023-11-10T06:00:00,mfh,72.03
2023-11-10T06:01:00,mfh,77.90
2023-11-10T06:02:00,mfh,78.19
2023-11-10T06:03:00,mfh,78.31
2023-11-10T06:04:00,mfh,78.26
2023-11-10T06:05:00,mfh,78.37
2023-11-10T06:06:00,mfh,78.17
2023-11-10T06:07:00,mfh,78.14
2023-11-10T06:08:00,mfh,78.55
2023-11-10T06:09:00,mfh,78.17
2023-11-10T06:10:00,mfh,77.82
2023-11-10T06:11:00,mfh,78.23
2023-11-10T06:12:00,mfh,78.59
2023-11-10T06:13:00,mfh,78.35
2023-11-10T06:14:00,mfh,78.20
2023-11-10T06:15:00,mfh,78.51
2023-11-10T06:16:00,mfh,78.46
2023-11-10T06:17:00,mfh,78.61
2023-11-10T06:18:00,mfh,79.35
2023-11-10T06:19:00,mfh,86.92
2023-11-10T06:20:00,mfh,86.72
2023-11-10T06:21:00,mfh,86.34
2023-11-10T06:22:00,mfh,86.31
2023-11-10T06:23:00,mfh,86.34
2023-11-10T06:24:00,mfh,86.51
2023-11-10T06:25:00,mfh,86.51
2023-11-10T06:26:00,mfh,86.42
2023-11-10T06:27:00,mfh,86.46
2023-11-10T06:28:00,mfh,86.44
2023-11-10T06:29:00,mfh,86.46
2023-11-10T06:30:00,mfh,86.27
2023-11-10T06:31:00,mfh,86.19
2023-11-10T06:32:00,mfh,86.12
2023-11-10T06:33:00,mfh,86.27
2023-11-10T06:34:00,mfh,85.93
2023-11-10T06:35:00,mfh,83.98
2023-11-10T06:36:00,mfh,79.05
2023-11-10T06:37:00,mfh,79.15
2023-11-10T06:38:00,mfh,80.00
2023-11-10T06:39:00,mfh,79.55
2023-11-10T06:40:00,mfh,79.67
2023-11-10T06:41:00,mfh,80.37
2023-11-10T06:42:00,mfh,79.64
2023-11-10T06:43:00,mfh,79.65
2023-11-10T06:44:00,mfh,80.29
2023-11-10T06:45:00,mfh,79.59
2023-11-10T06:46:00,mfh,79.51
2023-11-10T06:47:00,mfh,79.54
2023-11-10T06:48:00,mfh,79.10
2023-11-10T06:49:00,mfh,79.13
2023-11-10T06:50:00,mfh,79.45
2023-11-10T06:51:00,mfh,79.45
2023-11-10T06:52:00,mfh,79.42
2023-11-10T06:53:00,mfh,79.34
2023-11-10T06:54:00,mfh,79.32
2023-11-10T06:55:00,mfh,79.33
2023-11-10T06:56:00,mfh,79.84
2023-11-10T06:57:00,mfh,79.40
2023-11-10T06:58:00,mfh,80.19
2023-11-10T06:59:00,mfh,79.86
2023-11-10T07:00:00,mfh,79.93
2023-11-10T07:01:00,mfh,80.03
2023-11-10T07:02:00,mfh,80.07
2023-11-10T07:03:00,mfh,82.57
2023-11-10T07:04:00,mfh,82.64
2023-11-10T07:05:00,mfh,82.63
2023-11-10T07:06:00,mfh,82.97
2023-11-10T07:07:00,mfh,82.67
2023-11-10T07:08:00,mfh,82.85
2023-11-10T07:09:00,mfh,84.75
2023-11-10T07:10:00,mfh,85.82
2023-11-10T07:11:00,mfh,85.84
2023-11-10T07:12:00,mfh,85.83
2023-11-10T07:13:00,mfh,85.74
2023-11-10T07:14:00,mfh,85.90
2023-11-10T07:15:00,mfh,85.84
2023-11-10T07:16:00,mfh,85.66
2023-11-10T07:17:00,mfh,85.61
2023-11-10T07:18:00,mfh,85.82
2023-11-10T07:19:00,mfh,85.77
2023-11-10T07:20:00,mfh,85.63
2023-11-10T07:21:00,mfh,85.55
2023-11-10T07:22:00,mfh,85.61
2023-11-10T07:23:00,mfh,85.57
2023-11-10T07:24:00,mfh,85.72
2023-11-10T07:25:00,mfh,82.89
2023-11-10T07:26:00,mfh,82.43
2023-11-10T07:27:00,mfh,81.03
2023-11-10T07:28:00,mfh,81.08
2023-11-10T07:29:00,mfh,81.09
2023-11-10T07:30:00,mfh,80.63
2023-11-10T07:31:00,mfh,81.15
2023-11-10T07:32:00,mfh,77.55
2023-11-10T07:33:00,mfh,77.69
2023-11-10T07:34:00,mfh,77.34
2023-11-10T07:35:00,mfh,77.02
2023-11-10T07:36:00,mfh,77.05
2023-11-10T07:37:00,mfh,76.95
2023-11-10T07:38:00,mfh,77.07
2023-11-10T07:39:00,mfh,77.18
2023-11-10T07:40:00,mfh,77.28
2023-11-10T07:41:00,mfh,77.00
2023-11-10T07:42:00,mfh,76.55
2023-11-10T07:43:00,mfh,76.60
2023-11-10T07:44:00,mfh,80.16
2023-11-10T07:45:00,mfh,80.48
2023-11-10T07:46:00,mfh,80.20
2023-11-10T07:47:00,mfh,80.34
2023-11-10T07:48:00,mfh,80.39
2023-11-10T07:49:00,mfh,80.60
2023-11-10T07:50:00,mfh,80.39
2023-11-10T07:51:00,mfh,80.89
2023-11-10T07:52:00,mfh,80.97
2023-11-10T07:53:00,mfh,81.15
2023-11-10T07:54:00,mfh,80.64
2023-11-10T07:55:00,mfh,80.62
2023-11-10T07:56:00,mfh,80.65
2023-11-10T07:57:00,mfh,80.07
2023-11-10T07:58:00,mfh,79.83
2023-11-10T07:59:00,mfh,79.72
2023-11-10T08:00:00,mfh,80.17
2023-11-10T08:01:00,mfh,80.20
2023-11-10T08:02:00,mfh,76.51
2023-11-10T08:03:00,mfh,76.60
2023-11-10T08:04:00,mfh,76.69
2023-11-10T08:05:00,mfh,76.57
2023-11-10T08:06:00,mfh,76.36
2023-11-10T08:07:00,mfh,76.45
2023-11-10T08:08:00,mfh,77.77
2023-11-10T08:09:00,mfh,75.92
2023-11-10T08:10:00,mfh,76.35
2023-11-10T08:11:00,mfh,77.03
2023-11-10T08:12:00,mfh,76.40
2023-11-10T08:13:00,mfh,76.95
2023-11-10T08:14:00,mfh,76.60
2023-11-10T08:15:00,mfh,76.93
2023-11-10T08:16:00,mfh,76.54
2023-11-10T08:17:00,mfh,76.71
2023-11-10T08:18:00,mfh,76.67
2023-11-10T08:19:00,mfh,76.59
2023-11-10T08:20:00,mfh,76.53
2023-11-10T08:21:00,mfh,76.86
2023-11-10T08:22:00,mfh,76.86
2023-11-10T08:23:00,mfh,76.59
2023-11-10T08:24:00,mfh,77.27
2023-11-10T08:25:00,mfh,76.59
2023-11-10T08:26:00,mfh,76.98
2023-11-10T08:27:00,mfh,77.44
2023-11-10T08:28:00,mfh,77.25
2023-11-10T08:29:00,mfh,77.35
2023-11-10T08:30:00,mfh,81.22
2023-11-10T08:31:00,mfh,84.69
2023-11-10T08:32:00,mfh,84.67
2023-11-10T08:33:00,mfh,85.83
2023-11-10T08:34:00,mfh,85.72
2023-11-10T08:35:00,mfh,85.52
2023-11-10T08:36:00,mfh,85.50
2023-11-10T08:37:00,mfh,85.70
2023-11-10T08:38:00,mfh,86.00
2023-11-10T08:39:00,mfh,85.86
2023-11-10T08:40:00,mfh,86.00
2023-11-10T08:41:00,mfh,85.97
2023-11-10T08:42:00,mfh,86.16
2023-11-10T08:43:00,mfh,86.09
2023-11-10T08:44:00,mfh,85.76
2023-11-10T08:45:00,mfh,86.19
2023-11-10T08:46:00,mfh,86.02
2023-11-10T08:47:00,mfh,86.04
2023-11-10T08:48:00,mfh,86.39
2023-11-10T08:49:00,mfh,85.78
2023-11-10T08:50:00,mfh,85.73
2023-11-10T08:51:00,mfh,85.92
2023-11-10T08:52:00,mfh,85.97
2023-11-10T08:53:00,mfh,86.18
2023-11-10T08:54:00,mfh,86.13
2023-11-10T08:55:00,mfh,84.95
2023-11-10T08:56:00,mfh,84.92
2023-11-10T08:57:00,mfh,85.00
2023-11-10T08:58:00,mfh,84.94
2023-11-10T08:59:00,mfh,85.02
2023-11-10T09:00:00,mfh,84.93
2023-11-10T09:01:00,mfh,85.02
2023-11-10T09:02:00,mfh,85.05
2023-11-10T09:03:00,mfh,85.28
2023-11-10T09:04:00,mfh,85.35
2023-11-10T09:05:00,mfh,85.20
2023-11-10T09:06:00,mfh,85.11
2023-11-10T09:07:00,mfh,85.15
2023-11-10T09:08:00,mfh,85.51
2023-11-10T09:09:00,mfh,85.16
2023-11-10T09:10:00,mfh,85.26
2023-11-10T09:11:00,mfh,85.32
2023-11-10T09:12:00,mfh,85.66
2023-11-10T09:13:00,mfh,85.23
2023-11-10T09:14:00,mfh,85.19
2023-11-10T09:15:00,mfh,85.24
2023-11-10T09:16:00,mfh,85.12
2023-11-10T09:17:00,mfh,85.29
2023-11-10T09:18:00,mfh,85.36
2023-11-10T09:19:00,mfh,85.33
2023-11-10T09:20:00,mfh,85.82
2023-11-10T09:21:00,mfh,85.52
2023-11-10T09:22:00,mfh,85.22
2023-11-10T09:23:00,mfh,85.25
2023-11-10T09:24:00,mfh,85.35
2023-11-10T09:25:00,mfh,85.51
2023-11-10T09:26:00,mfh,85.10
2023-11-10T09:27:00,mfh,85.15
2023-11-10T09:28:00,mfh,85.15
2023-11-10T09:29:00,mfh,85.56
2023-11-10T09:30:00,mfh,85.46
2023-11-10T09:31:00,mfh,85.48
2023-11-10T09:32:00,mfh,85.40
2023-11-10T09:33:00,mfh,85.72
2023-11-10T09:34:00,mfh,85.80
2023-11-10T09:35:00,mfh,85.74
2023-11-10T09:36:00,mfh,85.59
2023-11-10T09:37:00,mfh,85.62
2023-11-10T09:38:00,mfh,85.87
2023-11-10T09:39:00,mfh,85.64
2023-11-10T09:40:00,mfh,85.48
2023-11-10T09:41:00,mfh,85.76
2023-11-10T09:42:00,mfh,85.23
2023-11-10T09:43:00,mfh,85.58
2023-11-10T09:44:00,mfh,85.46
2023-11-10T09:45:00,mfh,85.66
2023-11-10T09:46:00,mfh,85.49
2023-11-10T09:47:00,mfh,85.49
2023-11-10T09:48:00,mfh,85.60
2023-11-10T09:49:00,mfh,85.68
2023-11-10T09:50:00,mfh,85.85
2023-11-10T09:51:00,mfh,86.01
2023-11-10T09:52:00,mfh,85.56
2023-11-10T09:53:00,mfh,85.56
2023-11-10T09:54:00,mfh,83.65
2023-11-10T09:55:00,mfh,84.00
2023-11-10T09:56:00,mfh,80.23
2023-11-10T09:57:00,mfh,80.48
2023-11-10T09:58:00,mfh,80.88
2023-11-10T09:59:00,mfh,80.55
2023-11-10T10:00:00,mfh,80.71
2023-11-10T10:01:00,mfh,80.58
2023-11-10T10:02:00,mfh,80.65
2023-11-10T10:03:00,mfh,80.75
2023-11-10T10:04:00,mfh,80.58
2023-11-10T10:05:00,mfh,79.91
2023-11-10T10:06:00,mfh,78.40
2023-11-10T10:07:00,mfh,78.49
2023-11-10T10:08:00,mfh,80.74
2023-11-10T10:09:00,mfh,82.16
2023-11-10T10:10:00,mfh,82.38
2023-11-10T10:11:00,mfh,82.61
2023-11-10T10:12:00,mfh,82.98
2023-11-10T10:13:00,mfh,82.38
2023-11-10T10:14:00,mfh,82.10
2023-11-10T10:15:00,mfh,82.34
2023-11-10T10:16:00,mfh,82.20
2023-11-10T10:17:00,mfh,82.15
2023-11-10T10:18:00,mfh,82.82
2023-11-10T10:19:00,mfh,82.84
2023-11-10T10:20:00,mfh,83.15
2023-11-10T10:21:00,mfh,83.11
2023-11-10T10:22:00,mfh,83.45
2023-11-10T10:23:00,mfh,83.12
2023-11-10T10:24:00,mfh,83.02
2023-11-10T10:25:00,mfh,83.23
2023-11-10T10:26:00,mfh,80.79
2023-11-10T10:27:00,mfh,80.49
2023-11-10T10:28:00,mfh,81.10
2023-11-10T10:29:00,mfh,80.55
2023-11-10T10:30:00,mfh,80.44
2023-11-10T10:31:00,mfh,82.71
2023-11-10T10:32:00,mfh,82.84
2023-11-10T10:33:00,mfh,83.02
2023-11-10T10:34:00,mfh,83.10
2023-11-10T10:35:00,mfh,83.12
2023-11-10T10:36:00,mfh,82.97
2023-11-10T10:37:00,mfh,83.05
2023-11-10T10:38:00,mfh,82.89
2023-11-10T10:39:00,mfh,82.41
2023-11-10T10:40:00,mfh,82.27
2023-11-10T10:41:00,mfh,82.18
2023-11-10T10:42:00,mfh,81.91
2023-11-10T10:43:00,mfh,81.45
2023-11-10T10:44:00,mfh,81.45
2023-11-10T10:45:00,mfh,81.90
2023-11-10T10:46:00,mfh,81.98
2023-11-10T10:47:00,mfh,82.09
2023-11-10T10:48:00,mfh,82.28
2023-11-10T10:49:00,mfh,82.07
2023-11-10T10:50:00,mfh,82.18
2023-11-10T10:51:00,mfh,82.86
2023-11-10T10:52:00,mfh,82.22
2023-11-10T10:53:00,mfh,82.84
2023-11-10T10:54:00,mfh,83.48
2023-11-10T10:55:00,mfh,82.43
2023-11-10T10:56:00,mfh,82.42
2023-11-10T10:57:00,mfh,82.20
2023-11-10T10:58:00,mfh,82.59
2023-11-10T10:59:00,mfh,83.99
2023-11-10T11:00:00,mfh,84.01
2023-11-10T11:01:00,mfh,84.05
2023-11-10T11:02:00,mfh,84.34
2023-11-10T11:03:00,mfh,84.47
2023-11-10T11:04:00,mfh,84.03
2023-11-10T11:05:00,mfh,83.97
2023-11-10T11:06:00,mfh,84.03
2023-11-10T11:07:00,mfh,83.74
2023-11-10T11:08:00,mfh,84.38
2023-11-10T11:09:00,mfh,85.86
2023-11-10T11:10:00,mfh,87.00
2023-11-10T11:11:00,mfh,86.99
2023-11-10T11:12:00,mfh,86.90
2023-11-10T11:13:00,mfh,86.98
2023-11-10T11:14:00,mfh,86.83
2023-11-10T11:15:00,mfh,86.87
2023-11-10T11:16:00,mfh,86.93
2023-11-10T11:17:00,mfh,87.02
2023-11-10T11:18:00,mfh,87.23
2023-11-10T11:19:00,mfh,87.03
2023-11-10T11:20:00,mfh,86.82
2023-11-10T11:21:00,mfh,86.97
2023-11-10T11:22:00,mfh,86.87
2023-11-10T11:23:00,mfh,87.02
2023-11-10T11:24:00,mfh,86.90
2023-11-10T11:25:00,mfh,86.89
2023-11-10T11:26:00,mfh,86.97
2023-11-10T11:27:00,mfh,87.00
2023-11-10T11:28:00,mfh,86.95
2023-11-10T11:29:00,mfh,87.15
2023-11-10T11:30:00,mfh,87.05
2023-11-10T11:31:00,mfh,86.88
2023-11-10T11:32:00,mfh,86.92
2023-11-10T11:33:00,mfh,86.93
2023-11-10T11:34:00,mfh,86.86
2023-11-10T11:35:00,mfh,87.09
2023-11-10T11:36:00,mfh,87.11
2023-11-10T11:37:00,mfh,87.02
2023-11-10T11:38:00,mfh,87.02
2023-11-10T11:39:00,mfh,86.86
2023-11-10T11:40:00,mfh,86.83
2023-11-10T11:41:00,mfh,86.77
2023-11-10T11:42:00,mfh,86.87
2023-11-10T11:43:00,mfh,86.67
2023-11-10T11:44:00,mfh,86.68
2023-11-10T11:45:00,mfh,86.71
2023-11-10T11:46:00,mfh,86.52
2023-11-10T11:47:00,mfh,86.51
2023-11-10T11:48:00,mfh,86.69
2023-11-10T11:49:00,mfh,86.66
2023-11-10T11:50:00,mfh,86.67
2023-11-10T11:51:00,mfh,86.96
2023-11-10T11:52:00,mfh,86.78
2023-11-10T11:53:00,mfh,86.84
2023-11-10T11:54:00,mfh,86.67
2023-11-10T11:55:00,mfh,86.74
2023-11-10T11:56:00,mfh,86.66
2023-11-10T11:57:00,mfh,86.78
2023-11-10T11:58:00,mfh,86.59
2023-11-10T11:59:00,mfh,86.69
2023-11-10T12:00:00,mfh,86.79
2023-11-10T12:01:00,mfh,86.83
2023-11-10T12:02:00,mfh,86.74
2023-11-10T12:03:00,mfh,86.73
2023-11-10T12:04:00,mfh,86.71
2023-11-10T12:05:00,mfh,86.69
2023-11-10T12:06:00,mfh,86.75
2023-11-10T12:07:00,mfh,86.63
2023-11-10T12:08:00,mfh,86.63
2023-11-10T12:09:00,mfh,86.60
2023-11-10T12:10:00,mfh,86.65
2023-11-10T12:11:00,mfh,86.64
2023-11-10T12:12:00,mfh,86.46
2023-11-10T12:13:00,mfh,86.63
2023-11-10T12:14:00,mfh,86.72
2023-11-10T12:15:00,mfh,86.61
2023-11-10T12:16:00,mfh,86.62
2023-11-10T12:17:00,mfh,86.67
2023-11-10T12:18:00,mfh,86.57
2023-11-10T12:19:00,mfh,86.58
2023-11-10T12:20:00,mfh,86.54
2023-11-10T12:21:00,mfh,86.58
2023-11-10T12:22:00,mfh,86.28
2023-11-10T12:23:00,mfh,86.62
2023-11-10T12:24:00,mfh,86.60
2023-11-10T12:25:00,mfh,86.53
2023-11-10T12:26:00,mfh,86.72
2023-11-10T12:27:00,mfh,86.54
2023-11-10T12:28:00,mfh,86.55
2023-11-10T12:29:00,mfh,86.63
2023-11-10T12:30:00,mfh,86.47
2023-11-10T12:31:00,mfh,86.54
2023-11-10T12:32:00,mfh,86.88
2023-11-10T12:33:00,mfh,86.72
2023-11-10T12:34:00,mfh,86.51
2023-11-10T12:35:00,mfh,86.55
2023-11-10T12:36:00,mfh,86.46
2023-11-10T12:37:00,mfh,86.34
2023-11-10T12:38:00,mfh,86.42
2023-11-10T12:39:00,mfh,86.53
2023-11-10T12:40:00,mfh,86.47
2023-11-10T12:41:00,mfh,86.45
2023-11-10T12:42:00,mfh,86.45
2023-11-10T12:43:00,mfh,86.48
2023-11-10T12:44:00,mfh,86.01
2023-11-10T12:45:00,mfh,86.27
2023-11-10T12:46:00,mfh,86.17
2023-11-10T12:47:00,mfh,86.10
2023-11-10T12:48:00,mfh,86.00
2023-11-10T12:49:00,mfh,86.48
2023-11-10T12:50:00,mfh,86.08
2023-11-10T12:51:00,mfh,86.09
2023-11-10T12:52:00,mfh,86.39
2023-11-10T12:53:00,mfh,86.08
2023-11-10T12:54:00,mfh,86.30
2023-11-10T12:55:00,mfh,86.03
2023-11-10T12:56:00,mfh,86.13
2023-11-10T12:57:00,mfh,86.43
2023-11-10T12:58:00,mfh,86.16
2023-11-10T12:59:00,mfh,86.13
2023-11-10T13:00:00,mfh,86.08
2023-11-10T13:01:00,mfh,86.49
2023-11-10T13:02:00,mfh,86.48
2023-11-10T13:03:00,mfh,86.51
2023-11-10T13:04:00,mfh,86.93
2023-11-10T13:05:00,mfh,87.13
2023-11-10T13:06:00,mfh,86.52
2023-11-10T13:07:00,mfh,86.50
2023-11-10T13:08:00,mfh,86.57
2023-11-10T13:09:00,mfh,86.42
2023-11-10T13:10:00,mfh,86.28
2023-11-10T13:11:00,mfh,86.28
2023-11-10T13:12:00,mfh,86.35
2023-11-10T13:13:00,mfh,86.38
2023-11-10T13:14:00,mfh,86.15
2023-11-10T13:15:00,mfh,86.09
2023-11-10T13:16:00,mfh,86.15
2023-11-10T13:17:00,mfh,86.28
2023-11-10T13:18:00,mfh,86.17